Location: Newark
(36.2667°N, 50.0000°E)
Time: 20:26:16
(UTC+00:00)

ISS - Visible Passes

Search period start: 23 September 2020 00:00
Search period end: 03 October 2020 00:00
Orbit: 419 x 420 km, 51.6° (Epoch: 24 September)

Date Brightness Start Highest point End Pass type
(mag) Time Alt. Az. Time Alt. Az. Time Alt. Az.
24 Sep -0.9 15:02:16 10° NW 15:03:37 12° NNW 15:04:58 10° N visible
01 Oct -1.2 16:00:07 10° N 16:01:16 13° N 16:01:16 13° N visible
02 Oct -1.2 15:13:39 10° N 15:14:15 10° NNE 15:14:50 10° NNE visible
02 Oct -0.5 16:48:26 10° NW 16:48:40 11° NW 16:48:40 11° NW visible
